This is the latest recevied weather packets stored in our database for station/object F5MAP-5. If no packets are shown the sender has not sent any weather packets the latest 10 day(s).
| Time | Temp. | Humidity | Pressure | Rain* | Wind** | Luminosity | Snow |
|---|---|---|---|---|---|---|---|
| 1777878131 | 13.33° C | 82% | 1014.4 hPa | 0 mm | - | 113 W/m² | - |
| 1777877532 | 12.78° C | 83% | 1014.3 hPa | 0 mm | - | 116 W/m² | - |
| 1777876932 | 12.22° C | 84% | 1014.2 hPa | 0 mm | - | 132 W/m² | - |
| 1777876332 | 12.22° C | 84% | 1014.2 hPa | 0 mm | - | 130 W/m² | - |
| 1777875732 | 11.67° C | 84% | 1014.2 hPa | 0 mm | - | 104 W/m² | - |
| 1777875133 | 11.67° C | 85% | 1014.2 hPa | 0 mm | - | 100 W/m² | - |
| 1777874532 | 11.11° C | 85% | 1014.2 hPa | 0 mm | - | 88 W/m² | - |
| 1777873932 | 11.11° C | 84% | 1014.2 hPa | 0 mm | - | 84 W/m² | - |
| 1777873332 | 10.56° C | 84% | 1014.2 hPa | 0 mm | - | 74 W/m² | - |
| 1777872732 | 10.56° C | 84% | 1014.1 hPa | 0 mm | - | 46 W/m² | - |
| 1777872132 | 10.56° C | 83% | 1014.1 hPa | 0 mm | - | 40 W/m² | - |
| 1777871531 | 10.56° C | 83% | 1014.3 hPa | 0 mm | - | 35 W/m² | - |
| 1777870931 | 10° C | 83% | 1014.2 hPa | 0 mm | - | 30 W/m² | - |
| 1777870333 | 10° C | 82% | 1014.1 hPa | 0 mm | - | 21 W/m² | - |
| 1777869731 | 10° C | 82% | 1014.1 hPa | 0 mm | - | 19 W/m² | - |
| 1777869132 | 9.44° C | 82% | 1014.2 hPa | 0 mm | - | 11 W/m² | - |
| 1777868531 | 9.44° C | 81% | 1014.2 hPa | 0 mm | - | 5 W/m² | - |
| 1777867932 | 9.44° C | 81% | 1014.2 hPa | 0 mm | - | 0 W/m² | - |
| 1777867331 | 9.44° C | 81% | 1014.2 hPa | 0 mm | - | 0 W/m² | - |
| 1777866732 | 9.44° C | 81% | 1014.3 hPa | 0 mm | - | 0 W/m² | - |
| 1777866132 | 10° C | 81% | 1014.4 hPa | 0 mm | - | 0 W/m² | - |
| 1777865532 | 10° C | 81% | 1014.5 hPa | 0 mm | - | 0 W/m² | - |
| 1777864932 | 10° C | 81% | 1014.4 hPa | 0 mm | - | 0 W/m² | - |
| 1777864332 | 10° C | 80% | 1014.5 hPa | 0 mm | - | 0 W/m² | - |
| 1777863732 | 10° C | 80% | 1014.6 hPa | 0 mm | - | 0 W/m² | - |
* Rain latest hour (hover to see other rain measurements)
** Current wind speed in m/s (hover to see current wind gust speed)